Meteo pe oră la Almalyk

Astăzi, 24 Ianuarie, Duminică

Timp Temperatura Precipitaţii Vânt Presiune Umiditate
00:00 -7°C° 0 mm 2 m/s 701 mmHg 81%
01:00 -7°C° 0 mm 2 m/s 701 mmHg 81%
02:00 -7°C° 0 mm 2 m/s 701 mmHg 81%
03:00 -6°C° 0 mm 2 m/s 700 mmHg 86%
04:00 -7°C° 0 mm 2 m/s 700 mmHg 84%
05:00 -7°C° 0 mm 2 m/s 700 mmHg 83%
06:00 -7°C° 0 mm 2 m/s 700 mmHg 81%
07:00 -7°C° 0 mm 2 m/s 700 mmHg 78%
08:00 -7°C° 0 mm 2 m/s 700 mmHg 75%
09:00 -6°C° 0 mm 2 m/s 700 mmHg 74%
10:00 -2°C° 0 mm 1 m/s 699 mmHg 73%
11:00 -1°C° 0 mm 1 m/s 699 mmHg 72%
12:00 -1°C° 0 mm 1 m/s 698 mmHg 74%
13:00 -1°C° 0 mm 1 m/s 697 mmHg 76%
14:00 -1°C° 0 mm 1 m/s 696 mmHg 78%
15:00 -2°C° 0 mm 1 m/s 696 mmHg 79%
16:00 -3°C° 0 mm 1 m/s 696 mmHg 80%
17:00 -4°C° 0 mm 1 m/s 696 mmHg 81%
18:00 -6°C° 0 mm 1 m/s 696 mmHg 78%
19:00 -7°C° 0 mm 2 m/s 696 mmHg 75%
20:00 -7°C° 0 mm 2 m/s 697 mmHg 71%
21:00 -7°C° 0 mm 2 m/s 696 mmHg 70%
22:00 -7°C° 0 mm 2 m/s 696 mmHg 68%
23:00 -8°C° 0 mm 2 m/s 696 mmHg 66%

Mâine, 25 Ianuarie, Luni

Timp Temperatura Precipitaţii Vânt Presiune Umiditate
00:00 -8°C° 0 mm 2 m/s 696 mmHg 65%
01:00 -8°C° 0 mm 2 m/s 696 mmHg 64%
02:00 -8°C° 0 mm 2 m/s 695 mmHg 63%
03:00 -8°C° 0 mm 2 m/s 695 mmHg 62%
04:00 -8°C° 0 mm 2 m/s 695 mmHg 61%
05:00 -8°C° 0 mm 2 m/s 694 mmHg 60%
06:00 -8°C° 0 mm 2 m/s 695 mmHg 59%
07:00 -8°C° 0 mm 2 m/s 695 mmHg 59%
08:00 -7°C° 0 mm 2 m/s 695 mmHg 59%
09:00 -6°C° 0 mm 2 m/s 694 mmHg 61%
10:00 -4°C° 0 mm 2 m/s 694 mmHg 63%
11:00 0°C° 0 mm 1 m/s 694 mmHg 65%
12:00 0°C° 0 mm 1 m/s 693 mmHg 67%
13:00 0°C° 0 mm 1 m/s 693 mmHg 68%
14:00 0°C° 0 mm 0 m/s 692 mmHg 70%
15:00 0°C° 0 mm 1 m/s 692 mmHg 69%
16:00 -2°C° 0 mm 1 m/s 692 mmHg 69%
17:00 -3°C° 0 mm 1 m/s 692 mmHg 68%
18:00 -3°C° 0 mm 1 m/s 693 mmHg 66%
19:00 -5°C° 0 mm 2 m/s 693 mmHg 64%
20:00 -6°C° 0 mm 2 m/s 693 mmHg 62%
21:00 -6°C° 0 mm 2 m/s 694 mmHg 61%
22:00 -6°C° 0 mm 2 m/s 694 mmHg 60%
23:00 -6°C° 0 mm 2 m/s 694 mmHg 59%

Poimâine, 26 Ianuarie, Marţi

Timp Temperatura Precipitaţii Vânt Presiune Umiditate
00:00 -6°C° 0 mm 2 m/s 694 mmHg 58%
01:00 -6°C° 0 mm 2 m/s 693 mmHg 58%
02:00 -6°C° 0 mm 2 m/s 693 mmHg 57%
03:00 -6°C° 0 mm 2 m/s 693 mmHg 57%
04:00 -6°C° 0 mm 2 m/s 693 mmHg 56%
05:00 -6°C° 0 mm 2 m/s 693 mmHg 56%
06:00 -7°C° 0 mm 3 m/s 694 mmHg 56%
07:00 -7°C° 0 mm 3 m/s 694 mmHg 56%
08:00 -7°C° 0 mm 3 m/s 694 mmHg 57%
09:00 -5°C° 0 mm 2 m/s 694 mmHg 60%
10:00 -3°C° 0 mm 2 m/s 694 mmHg 63%
11:00 +1°C° 0 mm 1 m/s 694 mmHg 66%
12:00 +1°C° 0 mm 1 m/s 693 mmHg 68%
13:00 +2°C° 0 mm 1 m/s 693 mmHg 70%
14:00 +2°C° 0 mm 1 m/s 692 mmHg 72%
15:00 +1°C° 0 mm 1 m/s 693 mmHg 70%
16:00 0°C° 0 mm 1 m/s 693 mmHg 68%
17:00 -1°C° 0 mm 1 m/s 693 mmHg 65%
18:00 -4°C° 0 mm 2 m/s 693 mmHg 64%
19:00 -4°C° 0 mm 2 m/s 694 mmHg 62%
20:00 -5°C° 0 mm 2 m/s 694 mmHg 60%
21:00 -5°C° 0 mm 2 m/s 694 mmHg 59%
22:00 -6°C° 0 mm 3 m/s 694 mmHg 58%
23:00 -6°C° 0 mm 3 m/s 694 mmHg 57%

27 Ianuarie, Miercuri

Timp Temperatura Precipitaţii Vânt Presiune Umiditate
00:00 -6°C° 0 mm 3 m/s 694 mmHg 57%
01:00 -6°C° 0 mm 3 m/s 694 mmHg 56%
02:00 -7°C° 0 mm 3 m/s 694 mmHg 56%
03:00 -7°C° 0 mm 3 m/s 694 mmHg 56%
04:00 -7°C° 0 mm 3 m/s 694 mmHg 55%
05:00 -7°C° 0 mm 3 m/s 694 mmHg 55%
06:00 -7°C° 0 mm 3 m/s 694 mmHg 55%
07:00 -7°C° 0 mm 3 m/s 695 mmHg 56%
08:00 -7°C° 0 mm 3 m/s 695 mmHg 56%
09:00 -5°C° 0 mm 3 m/s 695 mmHg 59%
10:00 -3°C° 0 mm 2 m/s 694 mmHg 62%
11:00 -1°C° 0 mm 2 m/s 694 mmHg 66%
12:00 +1°C° 0 mm 2 m/s 694 mmHg 67%
13:00 +2°C° 0 mm 1 m/s 693 mmHg 68%
14:00 +3°C° 0 mm 1 m/s 693 mmHg 70%
15:00 +2°C° 0 mm 1 m/s 693 mmHg 67%
16:00 -1°C° 0 mm 2 m/s 693 mmHg 65%
17:00 -3°C° 0 mm 2 m/s 694 mmHg 62%
18:00 -3°C° 0 mm 2 m/s 694 mmHg 61%
19:00 -4°C° 0 mm 2 m/s 695 mmHg 60%
20:00 -5°C° 0 mm 3 m/s 695 mmHg 58%
21:00 -5°C° 0 mm 3 m/s 695 mmHg 57%
22:00 -6°C° 0 mm 3 m/s 695 mmHg 56%
23:00 -6°C° 0 mm 3 m/s 695 mmHg 55%

28 Ianuarie, Joi

Timp Temperatura Precipitaţii Vânt Presiune Umiditate
00:00 -6°C° 0 mm 3 m/s 695 mmHg 55%
01:00 -6°C° 0 mm 3 m/s 695 mmHg 54%
02:00 -7°C° 0 mm 3 m/s 695 mmHg 54%
03:00 -7°C° 0 mm 3 m/s 695 mmHg 53%
04:00 -7°C° 0 mm 3 m/s 695 mmHg 53%
05:00 -8°C° 0 mm 4 m/s 695 mmHg 53%
06:00 -8°C° 0 mm 4 m/s 695 mmHg 53%
07:00 -8°C° 0 mm 4 m/s 695 mmHg 53%
08:00 -8°C° 0 mm 4 m/s 695 mmHg 53%
09:00 -5°C° 0 mm 3 m/s 695 mmHg 56%
10:00 -4°C° 0 mm 3 m/s 694 mmHg 59%
11:00 -1°C° 0 mm 3 m/s 694 mmHg 62%
12:00 +1°C° 0 mm 2 m/s 694 mmHg 63%
13:00 +1°C° 0 mm 2 m/s 693 mmHg 65%
14:00 +2°C° 0 mm 2 m/s 693 mmHg 66%
15:00 +1°C° 0 mm 2 m/s 693 mmHg 64%
16:00 -1°C° 0 mm 2 m/s 693 mmHg 61%
17:00 -2°C° 0 mm 3 m/s 693 mmHg 59%
18:00 -4°C° 0 mm 3 m/s 693 mmHg 57%
19:00 -5°C° 0 mm 3 m/s 694 mmHg 56%
20:00 -5°C° 0 mm 4 m/s 694 mmHg 54%
21:00 -7°C° 0 mm 4 m/s 694 mmHg 53%
22:00 -7°C° 0 mm 4 m/s 694 mmHg 52%
23:00 -7°C° 0 mm 4 m/s 694 mmHg 51%

29 Ianuarie, Vineri

Timp Temperatura Precipitaţii Vânt Presiune Umiditate
Arată mai mult

Formular de consimțământ

Meteoprog și furnizorii noștri de servicii pot stoca și accesa date personale, precum cookies, identificatori de dispozitiv sau alte tehnologii similare pe dispozitivul dumneavoastră și procesa astfel de date pentru a personaliza conținutul și reclamele, dar și pentru a oferi caracteristici de social media și pentru a analiza traficul.

  • Stocarea și/sau accesarea informațiilor pe dispozitivul dumneavoastră

    Cookies, identificatori de dispozitiv sau alte informații pot fi stocate sau accesate pe dispozitiv în scopurile indicate mai sus.

  • Reclame și conținut personalizat, evaluarea reclamelor și a conținutului, informații despre audiențe și dezvoltarea produselor

    Reclamele și conținutul pot fi personalizate pe baza unui profil. Pot fi adăugate date suplimentare pentru a personaliza mai bine reclamele și conținutul. Performanța reclamelor și conținutului poate fi măsurată. Pot fi obținute informații despre utilizatorii care au văzut reclamele și conținutul. Aceste date pot fi utilizate pentru a dezvolta sau îmbunătăți experiența utilizatorilor, sistemele și software-ul.

Dând clic pe ‘Sunt de acord’, permiteți utilizarea cookie-urilor menționate, a identificatorilor de dispozitiv, balizelor web sau altor tehnologii similare. Setările pot fi modificate din browser-ul dispozitivului dumneavoastră.

În anumite scopuri, interesele legitime pot prima asupra consimțământului. Puteți citi mai multe informații în acest sens în Politica privind Confidențialitatea Datelor și Cookie.